EW1065 Weather Reports


Display with metric or nautical units.
time (UTC)temp
F
wind
direction
speed
MPH
gust
MPH
rain 1hr
in
rain 24hr
in
rain mn
in
humidity
%
barometer
mb
20260509122020 56 0.0 0.0 0.00 0.00 0.00 91 1009.4
20260509121020 56 0.0 0.0 0.00 0.00 0.00 92 1009.3
20260509120040 55 0.0 0.0 0.00 0.00 0.00 92 1009.1
20260509115040 55 0.0 0.0 0.00 0.00 0.00 92 1009.0
20260509114020 55 0.0 0.0 0.00 0.00 0.00 92 1008.6
20260509113040 55 0.0 1.0 0.00 0.00 0.00 92 1008.8
20260509112020 55 0.0 1.0 0.00 0.00 0.00 92 1008.9
20260509111040 55 0.0 0.0 0.00 0.00 0.00 92 1008.7
20260509110020 55 0.0 0.0 0.00 0.00 0.00 92 1008.6
20260509105020 55 0.0 0.0 0.00 0.00 0.00 92 1008.8
20260509104020 55 0.0 0.0 0.00 0.00 0.00 92 1008.6
20260509103020 55 0.0 0.0 0.00 0.00 0.00 92 1008.7
20260509102018 55 0.0 0.0 0.00 0.00 0.00 91 1009.0
20260509101020 55 0.0 0.0 0.00 0.00 0.00 91 1009.0
20260509100020 55 0.0 0.0 0.00 0.00 0.00 91 1009.0
20260509095020 55 0.0 0.0 0.00 0.00 0.00 91 1008.9
20260509094040 55 0.0 0.0 0.00 0.00 0.00 91 1008.9
20260509093020 55 0.0 0.0 0.00 0.00 0.00 91 1009.1
20260509092020 55 0.0 0.0 0.00 0.00 0.00 90 1009.4
20260509091022 55 0.0 0.0 0.00 0.00 0.00 89 1009.5
20260509090020 55 0.0 0.0 0.00 0.00 0.00 89 1009.5
20260509085020 55 0.0 0.0 0.00 0.00 0.00 88 1009.3
20260509084020 55 0.0 0.0 0.00 0.00 0.00 87 1009.4
20260509083020 55 0.0 0.0 0.00 0.00 0.00 87 1009.2
20260509082020 55 0.0 0.0 0.00 0.00 0.00 86 1009.3
20260509081020 55 0.0 0.0 0.00 0.00 0.00 87 1009.5
20260509080020 55 0.0 0.0 0.00 0.00 0.00 87 1009.5
20260509075020 55 0.0 0.0 0.00 0.00 0.00 85 1009.5
20260509074020 55 0.0 0.0 0.00 0.00 0.00 84 1009.3
20260509073020 55 0.0 0.0 0.00 0.00 0.00 84 1009.3
20260509072020 56 0.0 0.0 0.00 0.00 0.00 83 1009.3
20260509071020 56 0.0 0.0 0.00 0.00 0.00 82 1009.4
20260509070020 56 0.0 0.0 0.00 0.00 0.00 82 1009.6
20260509065040 56 0.0 0.0 0.00 0.00 0.00 81 1010.0
20260509064020 56 0.0 0.0 0.00 0.00 0.00 81 1010.1
20260509063020 56 0.0 0.0 0.00 0.00 0.00 81 1010.0
20260509062038 57 0.0 0.0 0.00 0.00 0.00 79 1010.1
20260509061020 57 0.0 0.0 0.00 0.00 0.00 79 1010.0
20260509060020 57 0.0 0.0 0.00 0.00 0.00 78 1010.1
20260509055040 57 0.0 0.0 0.00 0.00 0.00 78 1010.1
20260509054020 57 0.0 0.0 0.00 0.00 0.00 76 1010.1
20260509053020 58 0.0 0.0 0.00 0.00 0.00 77 1010.1
20260509052020 58 0.0 0.0 0.00 0.00 0.00 74 1010.0
20260509051018 58 0.0 0.0 0.00 0.00 0.00 73 1010.0
20260509050020 58 0.0 0.0 0.00 0.00 0.00 74 1010.0
20260509045020 59 0.0 0.0 0.00 0.00 0.00 73 1010.0
20260509044040 59 0.0 0.0 0.00 0.00 0.00 73 1010.0
20260509043020 60 0.0 0.0 0.00 0.00 0.00 70 1010.1
20260509042020 59 0.0 1.0 0.00 0.00 0.00 68 1010.0
20260509041020 60 0.0 0.0 0.00 0.00 0.00 67 1010.0
20260509040040 60 0.0 0.0 0.00 0.00 0.00 69 1010.0
20260509035040 60 0.0 0.0 0.00 0.00 0.00 66 1010.2
20260509034020 60 0.0 0.0 0.00 0.00 0.00 67 1010.4
20260509033020 60 0.0 0.0 0.00 0.00 0.00 66 1010.3
20260509032020 60 0.0 0.0 0.00 0.00 0.00 68 1010.4
20260509031042 60 0.0 0.0 0.00 0.00 0.00 67 1010.5
20260509030020 59 0.0 0.0 0.00 0.00 0.00 68 1010.3
20260509025020 58 0.0 0.0 0.00 0.00 0.00 71 1010.5
20260509024022 58 0.0 0.0 0.00 0.00 0.00 75 1010.8
20260509023018 58 0.0 0.0 0.00 0.00 0.00 75 1010.9
20260509022020 59 0.0 0.0 0.00 0.00 0.00 74 1010.8
20260509021020 59 0.0 0.0 0.00 0.00 0.00 73 1010.7
20260509020020 59 0.0 0.0 0.00 0.00 0.00 71 1010.6
20260509015018 59 0.0 0.0 0.00 0.00 0.00 72 1010.5
20260509014020 59 0.0 0.0 0.00 0.00 0.00 70 1010.5
20260509013020 60 0.0 0.0 0.00 0.00 0.00 68 1010.4
20260509012020 60 0.0 0.0 0.00 0.00 0.00 66 1010.3
20260509011040 61 0.0 0.0 0.00 0.00 0.00 63 1010.5
20260509010020 63 0.0 0.0 0.00 0.00 0.00 60 1010.5
20260509005020 64 0.0 1.0 0.00 0.00 0.00 54 1010.4
20260509004018 65 0.0 1.0 0.00 0.00 0.00 53 1010.4
20260509003018 66 0.0 4.0 0.00 0.00 0.00 51 1010.4
20260509002020 67 0.0 1.0 0.00 0.00 0.00 49 1010.2
20260509001020 67 0.0 4.0 0.00 0.00 0.00 48 1010.3
20260509000020 68 0.0 1.0 0.00 0.00 0.00 47 1010.2
20260508235020 68 270 1.0 3.0 0.00 0.00 0.00 46 1010.4
20260508234018 68 225 1.0 5.0 0.00 0.00 0.00 46 1010.4
20260508233020 69 270 1.0 5.0 0.00 0.00 0.00 47 1010.4
20260508232040 69 270 2.0 5.0 0.00 0.00 0.00 45 1010.4
20260508231020 69 225 2.0 7.0 0.00 0.00 0.00 46 1010.4
20260508230040 69 248 2.0 7.0 0.00 0.00 0.00 44 1010.5
20260508225018 70 270 2.0 9.0 0.00 0.00 0.00 44 1010.6
20260508224040 71 270 1.0 4.0 0.00 0.00 0.00 44 1010.6
20260508223020 72 225 1.0 4.0 0.00 0.00 0.00 41 1010.4
20260508222020 72 225 1.0 4.0 0.00 0.00 0.00 42 1010.4
20260508221018 73 270 1.0 5.0 0.00 0.00 0.00 40 1010.4
20260508220020 73 113 2.0 7.0 0.00 0.00 0.00 40 1010.2
20260508215040 73 248 2.0 7.0 0.00 0.00 0.00 40 1010.2
20260508214020 73 270 1.0 3.0 0.00 0.00 0.00 43 1010.4
20260508213020 73 270 2.0 4.0 0.00 0.00 0.00 41 1010.5
20260508212040 73 270 1.0 4.0 0.00 0.00 0.00 41 1010.6
20260508211018 73 248 2.0 7.0 0.00 0.00 0.00 43 1010.7
20260508210040 73 270 2.0 7.0 0.00 0.00 0.00 41 1010.8
20260508205040 73 225 2.0 6.0 0.00 0.00 0.00 39 1011.0
20260508204018 73 248 2.0 7.0 0.00 0.00 0.00 40 1011.0
20260508203040 73 270 2.0 6.0 0.00 0.00 0.00 40 1011.2
20260508202038 73 225 2.0 6.0 0.00 0.00 0.00 43 1011.4
20260508201040 73 270 2.0 8.0 0.00 0.00 0.00 41 1011.7
20260508200020 73 248 3.0 7.0 0.00 0.00 0.00 40 1011.9
20260508195020 73 225 2.0 7.0 0.00 0.00 0.00 41 1012.1
20260508194021 73 113 1.0 5.0 0.00 0.00 0.00 43 1012.1
20260508193020 73 225 2.0 6.0 0.00 0.00 0.00 39 1012.6
20260508192020 73 248 1.0 7.0 0.00 0.00 0.00 44 1012.6
20260508191018 73 248 2.0 5.0 0.00 0.00 0.00 42 1012.8
20260508190018 73 293 2.0 7.0 0.00 0.00 0.00 44 1012.6
20260508185020 73 315 2.0 8.0 0.00 0.00 0.00 42 1012.5
20260508184020 72 68 2.0 8.0 0.00 0.00 0.00 42 1012.4
20260508183018 72 225 1.0 5.0 0.00 0.00 0.00 44 1012.6
20260508182020 72 270 2.0 7.0 0.00 0.00 0.00 41 1013.0
20260508181040 72 225 1.0 5.0 0.00 0.00 0.00 42 1013.1
20260508180020 72 0.0 2.0 0.00 0.00 0.00 42 1013.3
20260508175018 71 270 2.0 5.0 0.00 0.00 0.00 48 1013.6
20260508174042 71 225 1.0 6.0 0.00 0.00 0.00 43 1013.7
20260508173020 71 270 2.0 7.0 0.00 0.00 0.00 46 1013.9
20260508172020 70 248 2.0 6.0 0.00 0.00 0.00 45 1014.3
20260508171020 70 248 1.0 5.0 0.00 0.00 0.00 44 1014.3
20260508170020 70 90 2.0 6.0 0.00 0.00 0.00 44 1014.5
20260508165020 70 225 1.0 5.0 0.00 0.00 0.00 44 1014.8
20260508164018 70 203 1.0 4.0 0.00 0.00 0.00 49 1015.0
20260508163018 69 135 1.0 3.0 0.00 0.00 0.00 48 1015.1
20260508162020 68 0 1.0 6.0 0.00 0.00 0.00 47 1015.3
20260508161040 68 270 1.0 5.0 0.00 0.00 0.00 48 1015.5
20260508160038 67 270 2.0 7.0 0.00 0.00 0.00 47 1015.6
20260508155018 67 248 2.0 6.0 0.00 0.00 0.00 48 1015.7
20260508154020 66 248 2.0 6.0 0.00 0.00 0.00 54 1016.0
20260508153020 66 225 2.0 7.0 0.00 0.00 0.00 49 1016.1
20260508152018 66 203 2.0 4.0 0.00 0.00 0.00 50 1016.1
20260508151020 65 203 1.0 8.0 0.00 0.00 0.00 50 1016.4
20260508150020 64 203 1.0 6.0 0.00 0.00 0.00 50 1016.4
20260508145020 63 293 1.0 6.0 0.00 0.00 0.00 58 1016.4
20260508144020 63 225 1.0 4.0 0.00 0.00 0.00 61 1016.6
20260508143018 61 180 1.0 3.0 0.00 0.00 0.00 60 1016.5
20260508142020 59 90 1.0 2.0 0.00 0.00 0.00 64 1016.6
20260508141020 58 113 1.0 3.0 0.00 0.00 0.00 64 1016.4
20260508140018 57 0.0 3.0 0.00 0.00 0.00 66 1016.6
20260508135018 55 0.0 2.0 0.00 0.00 0.00 68 1016.6
20260508134020 54 0.0 1.0 0.00 0.00 0.00 68 1016.6
20260508133040 54 0.0 1.0 0.00 0.00 0.00 70 1016.5
20260508132020 53 0.0 4.0 0.00 0.00 0.00 72 1016.5
20260508131018 52 0.0 2.0 0.00 0.00 0.00 74 1016.6
20260508130020 50 0.0 2.0 0.00 0.00 0.00 78 1016.4
20260508125020 49 0.0 1.0 0.00 0.00 0.00 82 1016.5
20260508124018 48 0.0 1.0 0.00 0.00 0.00 88 1016.5
20260508123018 46 0.0 1.0 0.00 0.00 0.00 94 1016.4